DAL348 KATL-KPHX

Flight info

Callsign DAL348
Flight time 3h 46m
Altitude 32000
Route NASSA2 YAALL J14 IRW J6 ZUN EAGUL6
Aircraft A339/H-SADE1E2E3GHIJ1J3J5M1P2RWXY/LB2D1

Departure

Time 2026-05-06 17:01
Airport Hartsfield Jackson Atlanta International Airport (KATL)

Arrival

Time 2026-05-06 20:47
Airport Phoenix Sky Harbor International Airport (KPHX)
Time Latitude Longitude Altitude Speed Heading
2026-05-06 16:34 33.63863 -84.42047 985 ft 0 kts 90°
2026-05-06 16:49 33.63863 -84.42053 986 ft 2 kts 92°
2026-05-06 16:50 33.63865 -84.42071 986 ft 2 kts 105°
2026-05-06 16:50 33.63870 -84.42088 987 ft 2 kts 115°
2026-05-06 16:50 33.63877 -84.42103 988 ft 2 kts 125°
2026-05-06 16:50 33.63887 -84.42117 989 ft 2 kts 135°
2026-05-06 16:51 33.63898 -84.42128 989 ft 2 kts 146°
2026-05-06 16:51 33.63910 -84.42136 989 ft 2 kts 155°
2026-05-06 16:51 33.63924 -84.42142 989 ft 2 kts 166°
2026-05-06 16:51 33.63938 -84.42145 989 ft 2 kts 176°
2026-05-06 16:52 33.63948 -84.42146 989 ft 1 kts 182°
2026-05-06 16:52 33.63949 -84.42145 989 ft 0 kts 182°
2026-05-06 16:55 33.63948 -84.42145 989 ft 0 kts 182°
2026-05-06 16:55 33.63942 -84.42146 989 ft 1 kts 182°
2026-05-06 16:56 33.63925 -84.42146 990 ft 3 kts 181°
2026-05-06 16:56 33.63896 -84.42147 990 ft 5 kts 180°
2026-05-06 16:56 33.63842 -84.42145 991 ft 8 kts 179°
2026-05-06 16:56 33.63779 -84.42145 992 ft 9 kts 180°
2026-05-06 16:57 33.63705 -84.42145 992 ft 11 kts 180°
2026-05-06 16:57 33.63660 -84.42107 990 ft 8 kts 101°
2026-05-06 16:57 33.63654 -84.42009 987 ft 14 kts 91°
2026-05-06 16:57 33.63654 -84.41865 979 ft 19 kts 90°
2026-05-06 16:58 33.63656 -84.41690 974 ft 21 kts 90°
2026-05-06 16:58 33.63654 -84.41503 971 ft 22 kts 90°
2026-05-06 16:58 33.63656 -84.41317 970 ft 22 kts 89°
2026-05-06 16:58 33.63655 -84.41131 970 ft 22 kts 91°
2026-05-06 16:59 33.63655 -84.40939 965 ft 23 kts 90°
2026-05-06 16:59 33.63651 -84.40779 958 ft 13 kts 106°
2026-05-06 16:59 33.63600 -84.40744 956 ft 9 kts 176°
2026-05-06 16:59 33.63529 -84.40743 956 ft 10 kts 181°
2026-05-06 17:00 33.63484 -84.40756 956 ft 3 kts 229°
2026-05-06 17:00 33.63473 -84.40803 959 ft 12 kts 265°
2026-05-06 17:00 33.63471 -84.41119 969 ft 66 kts 270°
2026-05-06 17:00 33.63471 -84.41895 984 ft 119 kts 270°
2026-05-06 17:01 33.63471 -84.43085 1021 ft 161 kts 266°
2026-05-06 17:01 33.63475 -84.44455 1433 ft 167 kts 267°
2026-05-06 17:01 33.63470 -84.45843 1975 ft 169 kts 268°
2026-05-06 17:01 33.63474 -84.47236 2531 ft 170 kts 267°
2026-05-06 17:02 33.63477 -84.48664 2935 ft 176 kts 268°
2026-05-06 17:02 33.63478 -84.50186 3192 ft 191 kts 268°
2026-05-06 17:02 33.63476 -84.51845 3465 ft 206 kts 268°
2026-05-06 17:02 33.63473 -84.53632 3758 ft 222 kts 268°
2026-05-06 17:03 33.63470 -84.55538 4057 ft 239 kts 268°
2026-05-06 17:03 33.63467 -84.57602 4498 ft 250 kts 268°
2026-05-06 17:03 33.63464 -84.59673 5160 ft 252 kts 269°
2026-05-06 17:03 33.63462 -84.61756 5827 ft 253 kts 268°
2026-05-06 17:04 33.63458 -84.63872 6502 ft 254 kts 268°
2026-05-06 17:04 33.63454 -84.65986 7175 ft 255 kts 268°
2026-05-06 17:04 33.63462 -84.68094 7874 ft 255 kts 268°
2026-05-06 17:04 33.63473 -84.70200 8557 ft 256 kts 268°
2026-05-06 17:05 33.63522 -84.72320 9246 ft 257 kts 271°
2026-05-06 17:05 33.63703 -84.74447 9949 ft 257 kts 275°
2026-05-06 17:05 33.63973 -84.76570 10474 ft 264 kts 275°
2026-05-06 17:05 33.64261 -84.78823 10729 ft 280 kts 276°
2026-05-06 17:06 33.64563 -84.81172 10989 ft 295 kts 276°
2026-05-06 17:06 33.64886 -84.83671 11260 ft 311 kts 276°
2026-05-06 17:06 33.65222 -84.86285 11513 ft 326 kts 276°
2026-05-06 17:06 33.65577 -84.89030 11765 ft 340 kts 276°
2026-05-06 17:07 33.65940 -84.91853 12258 ft 347 kts 276°
2026-05-06 17:07 33.66311 -84.94709 12948 ft 348 kts 276°
2026-05-06 17:07 33.66683 -84.97595 13601 ft 350 kts 276°
2026-05-06 17:07 33.67051 -85.00455 14219 ft 352 kts 276°
2026-05-06 17:08 33.67426 -85.03378 14864 ft 354 kts 276°
2026-05-06 17:08 33.67791 -85.06250 15507 ft 355 kts 277°
2026-05-06 17:08 33.68167 -85.09203 16160 ft 357 kts 277°
2026-05-06 17:08 33.68538 -85.12121 16825 ft 357 kts 277°
2026-05-06 17:09 33.68910 -85.15053 17484 ft 358 kts 277°
2026-05-06 17:09 33.69285 -85.18008 18089 ft 359 kts 276°
2026-05-06 17:09 33.69578 -85.20956 18646 ft 362 kts 274°
2026-05-06 17:09 33.69751 -85.23965 19209 ft 364 kts 271°
2026-05-06 17:10 33.69795 -85.27004 19774 ft 365 kts 270°
2026-05-06 17:10 33.69770 -85.30046 20314 ft 367 kts 269°
2026-05-06 17:10 33.69743 -85.33086 20850 ft 369 kts 269°
2026-05-06 17:10 33.69711 -85.36214 21330 ft 372 kts 269°
2026-05-06 17:11 33.69679 -85.39288 21811 ft 374 kts 269°
2026-05-06 17:11 33.69643 -85.42409 22328 ft 375 kts 269°
2026-05-06 17:11 33.69607 -85.45554 22797 ft 377 kts 270°
2026-05-06 17:11 33.69570 -85.48684 23237 ft 379 kts 269°
2026-05-06 17:12 33.69531 -85.51846 23673 ft 381 kts 269°
2026-05-06 17:12 33.69490 -85.55024 24066 ft 384 kts 270°
2026-05-06 17:12 33.69446 -85.58244 24469 ft 386 kts 270°
2026-05-06 17:12 33.69405 -85.61454 24865 ft 387 kts 270°
2026-05-06 17:13 33.69364 -85.64661 25227 ft 390 kts 270°
2026-05-06 17:13 33.69316 -85.67931 25629 ft 392 kts 269°
2026-05-06 17:13 33.69270 -85.71172 26005 ft 394 kts 270°
2026-05-06 17:13 33.69227 -85.74454 26376 ft 396 kts 269°
2026-05-06 17:14 33.69178 -85.77755 26737 ft 397 kts 269°
2026-05-06 17:14 33.69127 -85.81089 27084 ft 399 kts 269°
2026-05-06 17:14 33.69078 -85.84392 27425 ft 401 kts 270°
2026-05-06 17:14 33.69025 -85.87759 27826 ft 401 kts 270°
2026-05-06 17:15 33.68973 -85.91067 28314 ft 399 kts 270°
2026-05-06 17:15 33.68922 -85.94361 28767 ft 397 kts 270°
2026-05-06 17:15 33.68867 -85.97654 29214 ft 395 kts 270°
2026-05-06 17:15 33.68819 -86.00965 29647 ft 394 kts 271°
2026-05-06 17:16 33.68876 -86.04230 30073 ft 392 kts 273°
2026-05-06 17:16 33.69048 -86.07485 30448 ft 392 kts 275°
2026-05-06 17:16 33.69297 -86.10696 30738 ft 393 kts 275°
2026-05-06 17:16 33.69551 -86.13992 31030 ft 394 kts 275°
2026-05-06 17:17 33.69801 -86.17239 31324 ft 395 kts 275°
2026-05-06 17:17 33.70059 -86.20531 31615 ft 396 kts 275°
2026-05-06 17:17 33.70310 -86.23801 31894 ft 396 kts 275°
2026-05-06 17:18 33.70821 -86.30377 31984 ft 397 kts 275°
2026-05-06 17:18 33.71329 -86.36993 31987 ft 397 kts 275°
2026-05-06 17:19 33.71831 -86.43579 31982 ft 398 kts 275°
2026-05-06 17:19 33.72335 -86.50174 31978 ft 397 kts 275°
2026-05-06 17:20 33.72831 -86.56740 31978 ft 397 kts 274°
2026-05-06 17:20 33.73325 -86.63351 31970 ft 397 kts 275°
2026-05-06 17:21 33.73816 -86.69940 31981 ft 396 kts 274°
2026-05-06 17:21 33.74298 -86.76496 31979 ft 397 kts 274°
2026-05-06 17:22 33.74780 -86.83079 31973 ft 396 kts 274°
2026-05-06 17:22 33.75257 -86.89634 31973 ft 396 kts 274°
2026-05-06 17:23 33.75736 -86.96236 31971 ft 396 kts 274°
2026-05-06 17:23 33.76203 -87.02792 31967 ft 396 kts 274°
2026-05-06 17:24 33.76674 -87.09390 31960 ft 396 kts 274°
2026-05-06 17:24 33.77142 -87.15981 31958 ft 396 kts 273°
2026-05-06 17:25 33.77597 -87.22542 31950 ft 396 kts 274°
2026-05-06 17:25 33.78056 -87.29137 31953 ft 396 kts 274°
2026-05-06 17:26 33.78509 -87.35716 31961 ft 396 kts 274°
2026-05-06 17:26 33.78960 -87.42303 31960 ft 396 kts 274°
2026-05-06 17:27 33.79710 -87.48837 31956 ft 397 kts 278°
2026-05-06 17:27 33.80900 -87.55301 31956 ft 398 kts 281°
2026-05-06 17:28 33.82230 -87.61759 31950 ft 398 kts 281°
2026-05-06 17:28 33.83554 -87.68179 31941 ft 398 kts 281°
2026-05-06 17:29 33.84885 -87.74612 31941 ft 398 kts 281°
2026-05-06 17:29 33.86218 -87.81059 31937 ft 398 kts 280°
2026-05-06 17:30 33.87544 -87.87499 31931 ft 398 kts 281°
2026-05-06 17:30 33.88870 -87.93954 31935 ft 398 kts 281°
2026-05-06 17:31 33.90188 -88.00383 31935 ft 398 kts 280°
2026-05-06 17:31 33.91507 -88.06841 31937 ft 398 kts 280°
2026-05-06 17:32 33.92818 -88.13281 31938 ft 398 kts 281°
2026-05-06 17:32 33.94132 -88.19747 31929 ft 397 kts 281°
2026-05-06 17:33 33.95442 -88.26193 31935 ft 398 kts 280°
2026-05-06 17:33 33.96747 -88.32651 31935 ft 398 kts 280°
2026-05-06 17:34 33.98047 -88.39117 31927 ft 398 kts 281°
2026-05-06 17:34 33.99343 -88.45582 31935 ft 398 kts 280°
2026-05-06 17:35 34.00635 -88.52040 31935 ft 398 kts 279°
2026-05-06 17:35 34.01925 -88.58496 31938 ft 398 kts 280°
2026-05-06 17:36 34.03856 -88.68201 31943 ft 398 kts 280°
2026-05-06 17:36 34.05141 -88.74687 31940 ft 398 kts 280°
2026-05-06 17:37 34.06415 -88.81141 31947 ft 398 kts 279°
2026-05-06 17:37 34.07696 -88.87624 31942 ft 398 kts 279°
2026-05-06 17:38 34.08970 -88.94120 31947 ft 399 kts 280°
2026-05-06 17:38 34.10240 -89.00596 31948 ft 399 kts 279°
2026-05-06 17:39 34.11510 -89.07089 31957 ft 398 kts 279°
2026-05-06 17:39 34.12769 -89.13578 31950 ft 397 kts 279°
2026-05-06 17:40 34.14027 -89.20063 31947 ft 397 kts 279°
2026-05-06 17:40 34.15276 -89.26509 31953 ft 397 kts 279°
2026-05-06 17:41 34.16519 -89.32979 31963 ft 397 kts 279°
2026-05-06 17:41 34.17769 -89.39480 31969 ft 397 kts 279°
2026-05-06 17:42 34.19009 -89.45955 31970 ft 397 kts 278°
2026-05-06 17:42 34.20278 -89.52414 31974 ft 398 kts 281°
2026-05-06 17:43 34.21809 -89.58781 31976 ft 397 kts 281°
2026-05-06 17:43 34.23360 -89.65186 31972 ft 396 kts 281°
2026-05-06 17:44 34.24906 -89.71574 31975 ft 397 kts 281°
2026-05-06 17:44 34.26440 -89.77927 31984 ft 396 kts 281°
2026-05-06 17:45 34.27977 -89.84306 31981 ft 396 kts 281°
2026-05-06 17:45 34.29512 -89.90688 31988 ft 395 kts 281°
2026-05-06 17:46 34.31026 -89.97012 31984 ft 395 kts 280°
2026-05-06 17:46 34.32553 -90.03404 31983 ft 395 kts 280°
2026-05-06 17:47 34.34067 -90.09759 31984 ft 395 kts 280°
2026-05-06 17:47 34.35592 -90.16140 31985 ft 395 kts 280°
2026-05-06 17:48 34.37107 -90.22510 31986 ft 393 kts 281°
2026-05-06 17:48 34.38604 -90.28822 31985 ft 394 kts 280°
2026-05-06 17:49 34.40116 -90.35201 31990 ft 393 kts 280°
2026-05-06 17:49 34.41604 -90.41529 31994 ft 393 kts 279°
2026-05-06 17:50 34.43098 -90.47887 31994 ft 392 kts 280°
2026-05-06 17:50 34.44572 -90.54186 31996 ft 392 kts 279°
2026-05-06 17:51 34.46056 -90.60519 31993 ft 392 kts 279°
2026-05-06 17:51 34.47528 -90.66852 31995 ft 391 kts 279°
2026-05-06 17:52 34.48999 -90.73183 31996 ft 391 kts 279°
2026-05-06 17:52 34.50470 -90.79516 31989 ft 390 kts 279°
2026-05-06 17:53 34.51926 -90.85797 31989 ft 390 kts 278°
2026-05-06 17:53 34.53383 -90.92120 31989 ft 390 kts 279°
2026-05-06 17:54 34.54841 -90.98454 31990 ft 389 kts 278°
2026-05-06 17:54 34.56287 -91.04748 31993 ft 388 kts 278°
2026-05-06 17:55 34.57729 -91.11055 31997 ft 389 kts 278°
2026-05-06 17:55 34.59172 -91.17374 31993 ft 389 kts 279°
2026-05-06 17:56 34.60605 -91.23667 31991 ft 388 kts 279°
2026-05-06 17:56 34.62042 -91.29978 31996 ft 388 kts 278°
2026-05-06 17:57 34.63465 -91.36263 31996 ft 388 kts 279°
2026-05-06 17:57 34.64893 -91.42583 32003 ft 388 kts 278°
2026-05-06 17:58 34.66305 -91.48839 32005 ft 388 kts 278°
2026-05-06 17:58 34.67726 -91.55170 32014 ft 387 kts 278°
2026-05-06 17:59 34.69136 -91.61460 32011 ft 387 kts 278°
2026-05-06 17:59 34.70535 -91.67728 32016 ft 386 kts 278°
2026-05-06 18:00 34.71943 -91.74035 32007 ft 387 kts 278°
2026-05-06 18:00 34.73341 -91.80317 32006 ft 386 kts 278°
2026-05-06 18:01 34.74731 -91.86581 32012 ft 385 kts 278°
2026-05-06 18:01 34.76118 -91.92864 32017 ft 386 kts 278°
2026-05-06 18:02 34.77497 -91.99132 32023 ft 386 kts 277°
2026-05-06 18:02 34.78880 -92.05420 32039 ft 385 kts 277°
2026-05-06 18:03 34.80217 -92.11660 32039 ft 383 kts 276°
2026-05-06 18:03 34.81202 -92.18003 32046 ft 380 kts 272°
2026-05-06 18:04 34.81830 -92.24336 32049 ft 378 kts 271°
2026-05-06 18:04 34.82420 -92.30675 32047 ft 379 kts 270°
2026-05-06 18:05 34.83001 -92.37053 32049 ft 378 kts 270°
2026-05-06 18:05 34.83571 -92.43394 32050 ft 377 kts 270°
2026-05-06 18:06 34.84139 -92.49734 32046 ft 378 kts 270°
2026-05-06 18:06 34.84700 -92.56073 32043 ft 377 kts 271°
2026-05-06 18:07 34.85258 -92.62404 32030 ft 378 kts 270°
2026-05-06 18:07 34.85814 -92.68748 32035 ft 377 kts 270°
2026-05-06 18:08 34.86362 -92.75075 32031 ft 375 kts 269°
2026-05-06 18:08 34.86906 -92.81384 32025 ft 375 kts 270°
2026-05-06 18:09 34.87444 -92.87656 32026 ft 375 kts 270°
2026-05-06 18:09 34.87981 -92.93986 32028 ft 375 kts 269°
2026-05-06 18:10 34.88513 -93.00275 32027 ft 374 kts 270°
2026-05-06 18:10 34.89047 -93.06544 32026 ft 375 kts 269°
2026-05-06 18:11 34.89574 -93.12870 32026 ft 375 kts 270°
2026-05-06 18:11 34.90096 -93.19167 32023 ft 375 kts 269°
2026-05-06 18:12 34.90622 -93.25474 32021 ft 376 kts 269°
2026-05-06 18:12 34.91137 -93.31768 32025 ft 375 kts 270°
2026-05-06 18:13 34.91658 -93.38126 32026 ft 377 kts 269°
2026-05-06 18:13 34.92167 -93.44455 32024 ft 377 kts 269°
2026-05-06 18:14 34.92675 -93.50757 32024 ft 375 kts 269°
2026-05-06 18:14 34.93176 -93.57054 32018 ft 376 kts 269°
2026-05-06 18:15 34.93681 -93.63400 32019 ft 377 kts 269°
2026-05-06 18:15 34.94180 -93.69730 32024 ft 376 kts 269°
2026-05-06 18:16 34.94678 -93.76059 32008 ft 378 kts 269°
2026-05-06 18:16 34.95169 -93.82394 32011 ft 376 kts 269°
2026-05-06 18:17 34.95662 -93.88761 32011 ft 377 kts 269°
2026-05-06 18:17 34.96147 -93.95091 32012 ft 377 kts 269°
2026-05-06 18:18 34.96629 -94.01424 32014 ft 376 kts 268°
2026-05-06 18:18 34.97109 -94.07776 32017 ft 377 kts 268°
2026-05-06 18:19 34.97583 -94.14107 32014 ft 377 kts 268°
2026-05-06 18:19 34.98058 -94.20443 32022 ft 377 kts 269°
2026-05-06 18:20 34.98524 -94.26758 32028 ft 376 kts 268°
2026-05-06 18:20 34.98994 -94.33135 32028 ft 377 kts 268°
2026-05-06 18:21 34.99457 -94.39468 32034 ft 377 kts 268°
2026-05-06 18:21 34.99918 -94.45832 32037 ft 377 kts 269°
2026-05-06 18:22 35.00374 -94.52165 32039 ft 377 kts 268°
2026-05-06 18:22 35.00821 -94.58510 32039 ft 376 kts 268°
2026-05-06 18:23 35.01273 -94.64847 32041 ft 377 kts 269°
2026-05-06 18:23 35.01977 -94.71176 32039 ft 379 kts 271°
2026-05-06 18:24 35.02835 -94.77486 32038 ft 378 kts 271°
2026-05-06 18:24 35.03688 -94.83795 32035 ft 378 kts 271°
2026-05-06 18:25 35.04541 -94.90086 32028 ft 378 kts 271°
2026-05-06 18:25 35.05394 -94.96410 32022 ft 378 kts 271°
2026-05-06 18:26 35.06235 -95.02706 32023 ft 378 kts 271°
2026-05-06 18:26 35.07082 -95.09010 32024 ft 378 kts 271°
2026-05-06 18:27 35.07926 -95.15344 32023 ft 378 kts 271°
2026-05-06 18:27 35.08764 -95.21644 32022 ft 377 kts 271°
2026-05-06 18:28 35.09599 -95.27948 32021 ft 376 kts 271°
2026-05-06 18:28 35.10428 -95.34236 32017 ft 377 kts 271°
2026-05-06 18:29 35.11253 -95.40542 32020 ft 377 kts 271°
2026-05-06 18:29 35.12075 -95.46840 32021 ft 377 kts 271°
2026-05-06 18:30 35.12843 -95.53153 32023 ft 376 kts 270°
2026-05-06 18:30 35.13593 -95.59445 32020 ft 376 kts 270°
2026-05-06 18:31 35.14337 -95.65723 32024 ft 376 kts 270°
2026-05-06 18:31 35.15083 -95.72028 32022 ft 375 kts 270°
2026-05-06 18:32 35.15819 -95.78288 32017 ft 375 kts 270°
2026-05-06 18:32 35.16560 -95.84596 32023 ft 375 kts 270°
2026-05-06 18:33 35.17292 -95.90876 32023 ft 374 kts 270°
2026-05-06 18:33 35.18021 -95.97163 32022 ft 375 kts 270°
2026-05-06 18:34 35.18749 -96.03453 32024 ft 374 kts 270°
2026-05-06 18:34 35.19465 -96.09719 32019 ft 374 kts 270°
2026-05-06 18:35 35.20182 -96.15993 32022 ft 373 kts 269°
2026-05-06 18:35 35.20894 -96.22262 32024 ft 373 kts 270°
2026-05-06 18:36 35.21614 -96.28523 32024 ft 373 kts 270°
2026-05-06 18:36 35.22328 -96.34779 32027 ft 373 kts 270°
2026-05-06 18:37 35.22917 -96.40001 32028 ft 373 kts 270°
2026-05-06 18:37 35.23740 -96.47329 32032 ft 374 kts 270°
2026-05-06 18:38 35.24437 -96.53611 32036 ft 373 kts 269°
2026-05-06 18:38 35.25135 -96.59872 32043 ft 373 kts 270°
2026-05-06 18:39 35.25827 -96.66143 32048 ft 373 kts 269°
2026-05-06 18:40 35.26859 -96.75523 32046 ft 373 kts 269°
2026-05-06 18:40 35.27546 -96.81811 32050 ft 373 kts 268°
2026-05-06 18:41 35.28222 -96.88071 32053 ft 373 kts 269°
2026-05-06 18:41 35.28898 -96.94344 32053 ft 373 kts 269°
2026-05-06 18:42 35.29574 -97.00621 32058 ft 373 kts 269°
2026-05-06 18:42 35.30250 -97.06924 32059 ft 373 kts 268°
2026-05-06 18:43 35.30913 -97.13178 32064 ft 373 kts 269°
2026-05-06 18:43 35.31575 -97.19436 32058 ft 373 kts 268°
2026-05-06 18:44 35.32234 -97.25718 32067 ft 372 kts 269°
2026-05-06 18:44 35.32894 -97.31987 32067 ft 372 kts 269°
2026-05-06 18:45 35.33452 -97.37372 32072 ft 372 kts 268°
2026-05-06 18:45 35.34102 -97.43618 32069 ft 372 kts 268°
2026-05-06 18:46 35.34745 -97.49892 32072 ft 372 kts 268°
2026-05-06 18:46 35.35381 -97.56144 32070 ft 371 kts 268°
2026-05-06 18:47 35.35744 -97.62423 32073 ft 369 kts 264°
2026-05-06 18:47 35.35733 -97.68647 32078 ft 367 kts 262°
2026-05-06 18:48 35.35667 -97.74892 32073 ft 367 kts 262°
2026-05-06 18:48 35.35582 -97.81145 32070 ft 367 kts 262°
2026-05-06 18:49 35.35493 -97.87353 32073 ft 368 kts 262°
2026-05-06 18:49 35.35399 -97.93602 32077 ft 368 kts 262°
2026-05-06 18:50 35.35300 -97.99859 32078 ft 367 kts 262°
2026-05-06 18:50 35.35195 -98.06112 32074 ft 368 kts 262°
2026-05-06 18:51 35.35086 -98.12363 32065 ft 368 kts 262°
2026-05-06 18:51 35.34976 -98.18608 32062 ft 368 kts 262°
2026-05-06 18:52 35.34862 -98.24859 32053 ft 368 kts 262°
2026-05-06 18:52 35.34749 -98.31078 32052 ft 368 kts 262°
2026-05-06 18:53 35.34626 -98.37354 32049 ft 368 kts 262°
2026-05-06 18:53 35.34502 -98.43569 32051 ft 368 kts 262°
2026-05-06 18:54 35.34376 -98.49800 32050 ft 368 kts 262°
2026-05-06 18:54 35.34243 -98.56046 32051 ft 368 kts 262°
2026-05-06 18:55 35.34108 -98.62313 32046 ft 367 kts 263°
2026-05-06 18:55 35.33971 -98.68554 32052 ft 367 kts 262°
2026-05-06 18:56 35.33832 -98.74786 32049 ft 367 kts 262°
2026-05-06 18:56 35.33690 -98.80987 32052 ft 368 kts 262°
2026-05-06 18:57 35.33542 -98.87216 32058 ft 367 kts 262°
2026-05-06 18:57 35.33399 -98.93458 32059 ft 367 kts 262°
2026-05-06 18:58 35.33248 -98.99641 32066 ft 366 kts 262°
2026-05-06 18:58 35.33093 -99.05848 32072 ft 366 kts 262°
2026-05-06 18:59 35.32936 -99.12073 32078 ft 367 kts 262°
2026-05-06 18:59 35.32772 -99.18323 32082 ft 367 kts 262°
2026-05-06 19:00 35.32607 -99.24509 32076 ft 367 kts 262°
2026-05-06 19:00 35.32441 -99.30737 32079 ft 367 kts 262°
2026-05-06 19:01 35.32267 -99.36970 32079 ft 367 kts 262°
2026-05-06 19:01 35.32093 -99.43205 32079 ft 367 kts 262°
2026-05-06 19:02 35.31916 -99.49397 32074 ft 367 kts 262°
2026-05-06 19:02 35.31733 -99.55637 32069 ft 367 kts 262°
2026-05-06 19:03 35.31548 -99.61888 32068 ft 367 kts 262°
2026-05-06 19:03 35.31361 -99.68082 32065 ft 367 kts 262°
2026-05-06 19:04 35.31171 -99.74295 32064 ft 367 kts 261°
2026-05-06 19:04 35.30977 -99.80514 32060 ft 367 kts 261°
2026-05-06 19:05 35.30779 -99.86732 32066 ft 366 kts 262°
2026-05-06 19:05 35.30577 -99.92945 32057 ft 366 kts 262°
2026-05-06 19:06 35.30370 -99.99168 32064 ft 366 kts 262°
2026-05-06 19:06 35.30168 -100.05366 32062 ft 366 kts 261°
2026-05-06 19:07 35.29956 -100.11598 32066 ft 366 kts 262°
2026-05-06 19:07 35.29744 -100.17806 32064 ft 366 kts 262°
2026-05-06 19:08 35.29528 -100.24036 32065 ft 366 kts 261°
2026-05-06 19:08 35.29307 -100.30206 32064 ft 366 kts 262°
2026-05-06 19:09 35.29084 -100.36413 32066 ft 367 kts 261°
2026-05-06 19:09 35.28862 -100.42613 32065 ft 366 kts 261°
2026-05-06 19:10 35.28633 -100.48830 32066 ft 366 kts 262°
2026-05-06 19:10 35.28400 -100.55039 32064 ft 367 kts 262°
2026-05-06 19:11 35.28164 -100.61277 32059 ft 366 kts 262°
2026-05-06 19:11 35.27924 -100.67481 32066 ft 366 kts 262°
2026-05-06 19:12 35.27683 -100.73681 32062 ft 367 kts 261°
2026-05-06 19:12 35.27441 -100.79884 32063 ft 366 kts 262°
2026-05-06 19:13 35.27194 -100.86101 32060 ft 367 kts 261°
2026-05-06 19:13 35.26940 -100.92323 32053 ft 367 kts 261°
2026-05-06 19:14 35.26683 -100.98523 32057 ft 367 kts 261°
2026-05-06 19:14 35.26429 -101.04726 32055 ft 366 kts 261°
2026-05-06 19:15 35.26167 -101.10934 32054 ft 367 kts 261°
2026-05-06 19:15 35.25900 -101.17133 32059 ft 366 kts 261°
2026-05-06 19:16 35.25634 -101.23336 32059 ft 366 kts 261°
2026-05-06 19:16 35.25363 -101.29534 32059 ft 366 kts 261°
2026-05-06 19:17 35.25090 -101.35728 32059 ft 366 kts 262°
2026-05-06 19:17 35.24816 -101.41898 32065 ft 365 kts 261°
2026-05-06 19:18 35.24533 -101.48103 32069 ft 366 kts 262°
2026-05-06 19:18 35.24248 -101.54301 32069 ft 366 kts 261°
2026-05-06 19:19 35.23963 -101.60495 32068 ft 366 kts 261°
2026-05-06 19:19 35.23670 -101.66679 32073 ft 366 kts 261°
2026-05-06 19:20 35.23431 -101.72886 32074 ft 366 kts 263°
2026-05-06 19:20 35.23323 -101.79088 32075 ft 365 kts 262°
2026-05-06 19:21 35.23203 -101.85278 32067 ft 365 kts 263°
2026-05-06 19:21 35.23078 -101.91445 32061 ft 365 kts 262°
2026-05-06 19:22 35.22948 -101.97636 32058 ft 365 kts 262°
2026-05-06 19:22 35.22809 -102.03815 32048 ft 365 kts 262°
2026-05-06 19:23 35.22664 -102.10010 32047 ft 365 kts 263°
2026-05-06 19:23 35.22520 -102.16191 32041 ft 365 kts 262°
2026-05-06 19:24 35.22372 -102.22379 32035 ft 366 kts 262°
2026-05-06 19:24 35.22220 -102.28594 32032 ft 365 kts 263°
2026-05-06 19:25 35.22065 -102.34754 32035 ft 366 kts 263°
2026-05-06 19:25 35.21906 -102.40942 32036 ft 365 kts 263°
2026-05-06 19:26 35.21744 -102.47137 32033 ft 366 kts 263°
2026-05-06 19:26 35.21579 -102.53353 32037 ft 366 kts 263°
2026-05-06 19:27 35.21411 -102.59541 32032 ft 366 kts 262°
2026-05-06 19:27 35.21235 -102.65768 32035 ft 366 kts 262°
2026-05-06 19:28 35.21066 -102.71961 32034 ft 366 kts 262°
2026-05-06 19:28 35.20888 -102.78145 32033 ft 365 kts 263°
2026-05-06 19:29 35.20709 -102.84325 32037 ft 366 kts 262°
2026-05-06 19:29 35.20524 -102.90530 32040 ft 366 kts 262°
2026-05-06 19:30 35.20335 -102.96690 32042 ft 365 kts 262°
2026-05-06 19:30 35.20144 -103.02881 32041 ft 365 kts 262°
2026-05-06 19:31 35.19953 -103.09076 32029 ft 366 kts 262°
2026-05-06 19:31 35.19655 -103.18362 32029 ft 365 kts 262°
2026-05-06 19:32 35.19453 -103.24535 32023 ft 365 kts 262°
2026-05-06 19:32 35.19244 -103.30733 32030 ft 367 kts 262°
2026-05-06 19:33 35.19038 -103.36958 32023 ft 366 kts 262°
2026-05-06 19:33 35.18825 -103.43132 32033 ft 366 kts 262°
2026-05-06 19:34 35.18608 -103.49352 32039 ft 366 kts 263°
2026-05-06 19:34 35.18390 -103.55551 32033 ft 366 kts 262°
2026-05-06 19:35 35.18176 -103.61728 32037 ft 366 kts 262°
2026-05-06 19:35 35.17999 -103.67952 32039 ft 366 kts 262°
2026-05-06 19:36 35.17813 -103.74130 32028 ft 366 kts 262°
2026-05-06 19:36 35.17622 -103.80352 32027 ft 366 kts 262°
2026-05-06 19:37 35.17427 -103.86566 32031 ft 367 kts 263°
2026-05-06 19:37 35.17261 -103.91715 32028 ft 366 kts 263°
2026-05-06 19:38 35.17028 -103.98945 32029 ft 365 kts 263°
2026-05-06 19:38 35.16821 -104.05111 32036 ft 366 kts 262°
2026-05-06 19:39 35.16614 -104.11340 32027 ft 367 kts 262°
2026-05-06 19:39 35.16400 -104.17528 32027 ft 365 kts 263°
2026-05-06 19:40 35.16183 -104.23715 32035 ft 366 kts 263°
2026-05-06 19:40 35.15970 -104.29898 32028 ft 366 kts 262°
2026-05-06 19:41 35.15749 -104.36082 32028 ft 366 kts 262°
2026-05-06 19:41 35.15533 -104.41953 32033 ft 366 kts 262°
2026-05-06 19:42 35.15303 -104.48132 32035 ft 366 kts 263°
2026-05-06 19:42 35.15073 -104.54348 32034 ft 369 kts 262°
2026-05-06 19:43 35.14836 -104.60609 32031 ft 369 kts 262°
2026-05-06 19:43 35.14596 -104.66811 32033 ft 368 kts 263°
2026-05-06 19:44 35.14356 -104.73058 32035 ft 368 kts 262°
2026-05-06 19:44 35.14198 -104.77070 32029 ft 367 kts 263°
2026-05-06 19:45 35.13955 -104.83281 32037 ft 367 kts 262°
2026-05-06 19:45 35.13701 -104.89500 32044 ft 369 kts 261°
2026-05-06 19:46 35.13447 -104.95776 32039 ft 368 kts 263°
2026-05-06 19:46 35.13193 -105.01999 32047 ft 369 kts 262°
2026-05-06 19:47 35.12930 -105.08246 32048 ft 370 kts 263°
2026-05-06 19:47 35.12667 -105.14522 32059 ft 373 kts 262°
2026-05-06 19:48 35.12397 -105.20830 32059 ft 373 kts 263°
2026-05-06 19:48 35.12122 -105.27134 32061 ft 373 kts 263°
2026-05-06 19:49 35.11846 -105.33462 32069 ft 377 kts 262°
2026-05-06 19:49 35.11559 -105.39856 32064 ft 377 kts 263°
2026-05-06 19:50 35.11279 -105.46210 32073 ft 377 kts 262°
2026-05-06 19:50 35.10987 -105.52578 32074 ft 377 kts 263°
2026-05-06 19:51 35.10695 -105.58968 32077 ft 378 kts 263°
2026-05-06 19:51 35.10400 -105.65336 32094 ft 380 kts 263°
2026-05-06 19:52 35.10095 -105.71795 32088 ft 382 kts 262°
2026-05-06 19:52 35.09788 -105.78242 32095 ft 384 kts 263°
2026-05-06 19:53 35.09475 -105.84743 32099 ft 382 kts 263°
2026-05-06 19:53 35.09164 -105.91174 32097 ft 384 kts 263°
2026-05-06 19:54 35.08844 -105.97701 32089 ft 386 kts 263°
2026-05-06 19:54 35.08519 -106.04228 32077 ft 389 kts 263°
2026-05-06 19:55 35.08190 -106.10816 32086 ft 389 kts 263°
2026-05-06 19:55 35.07853 -106.17409 32079 ft 391 kts 263°
2026-05-06 19:56 35.07514 -106.24007 32082 ft 392 kts 263°
2026-05-06 19:56 35.07172 -106.30629 32082 ft 394 kts 264°
2026-05-06 19:57 35.06822 -106.37306 32091 ft 394 kts 263°
2026-05-06 19:57 35.06465 -106.44010 32078 ft 396 kts 264°
2026-05-06 19:58 35.06102 -106.50726 32071 ft 400 kts 264°
2026-05-06 19:58 35.05740 -106.57455 32062 ft 400 kts 264°
2026-05-06 19:59 35.05369 -106.64211 32053 ft 402 kts 264°
2026-05-06 19:59 35.04987 -106.71024 32048 ft 404 kts 264°
2026-05-06 20:00 35.04609 -106.77858 32040 ft 405 kts 263°
2026-05-06 20:00 35.04331 -106.84775 32038 ft 409 kts 265°
2026-05-06 20:01 35.04165 -106.91673 32035 ft 412 kts 265°
2026-05-06 20:01 35.03992 -106.98661 32047 ft 412 kts 266°
2026-05-06 20:02 35.03818 -107.05598 32059 ft 412 kts 266°
2026-05-06 20:02 35.03636 -107.12637 32063 ft 414 kts 266°
2026-05-06 20:03 35.03448 -107.19621 32074 ft 416 kts 266°
2026-05-06 20:03 35.03253 -107.26684 32091 ft 418 kts 266°
2026-05-06 20:04 35.03062 -107.33735 32096 ft 419 kts 266°
2026-05-06 20:04 35.02862 -107.40815 32109 ft 419 kts 267°
2026-05-06 20:05 35.02657 -107.47936 32117 ft 420 kts 266°
2026-05-06 20:05 35.02449 -107.55042 32128 ft 423 kts 267°
2026-05-06 20:06 35.02234 -107.62193 32128 ft 423 kts 267°
2026-05-06 20:06 35.02013 -107.69378 32135 ft 425 kts 266°
2026-05-06 20:07 35.01786 -107.76587 32133 ft 426 kts 266°
2026-05-06 20:07 35.01557 -107.83767 32148 ft 427 kts 267°
2026-05-06 20:08 35.01321 -107.91000 32153 ft 429 kts 267°
2026-05-06 20:08 35.01083 -107.98260 32157 ft 432 kts 267°
2026-05-06 20:09 35.00838 -108.05566 32161 ft 432 kts 267°
2026-05-06 20:09 35.00588 -108.12882 32166 ft 433 kts 267°
2026-05-06 20:10 35.00332 -108.20183 32165 ft 433 kts 267°
2026-05-06 20:10 35.00072 -108.27521 32166 ft 435 kts 267°
2026-05-06 20:11 34.99805 -108.34914 32170 ft 437 kts 268°
2026-05-06 20:11 34.99531 -108.42331 32160 ft 441 kts 268°
2026-05-06 20:12 34.99255 -108.49744 32156 ft 440 kts 268°
2026-05-06 20:12 34.98971 -108.57215 32157 ft 443 kts 268°
2026-05-06 20:13 34.98683 -108.64681 32163 ft 445 kts 268°
2026-05-06 20:13 34.98386 -108.72230 32148 ft 446 kts 268°
2026-05-06 20:14 34.98086 -108.79745 32144 ft 446 kts 268°
2026-05-06 20:14 34.97783 -108.87238 32139 ft 448 kts 268°
2026-05-06 20:15 34.97468 -108.94805 32132 ft 450 kts 268°
2026-05-06 20:15 34.97144 -109.02438 32139 ft 451 kts 267°
2026-05-06 20:16 34.96450 -109.09999 32144 ft 452 kts 262°
2026-05-06 20:16 34.95095 -109.17529 32156 ft 454 kts 256°
2026-05-06 20:17 34.93102 -109.24824 32165 ft 456 kts 251°
2026-05-06 20:17 34.90577 -109.31927 32158 ft 458 kts 248°
2026-05-06 20:18 34.87986 -109.39015 32163 ft 459 kts 248°
2026-05-06 20:18 34.85381 -109.46127 32152 ft 457 kts 249°
2026-05-06 20:19 34.82798 -109.53181 32157 ft 459 kts 249°
2026-05-06 20:19 34.80197 -109.60255 32164 ft 460 kts 249°
2026-05-06 20:20 34.77573 -109.67381 32165 ft 460 kts 248°
2026-05-06 20:20 34.74937 -109.74514 32165 ft 461 kts 248°
2026-05-06 20:21 34.72310 -109.81597 32164 ft 463 kts 248°
2026-05-06 20:21 34.69669 -109.88709 32157 ft 462 kts 248°
2026-05-06 20:22 34.67023 -109.95837 32155 ft 462 kts 248°
2026-05-06 20:22 34.64369 -110.02969 32153 ft 463 kts 248°
2026-05-06 20:23 34.61711 -110.10086 31753 ft 463 kts 248°
2026-05-06 20:23 34.60360 -110.13695 30768 ft 474 kts 248°
2026-05-06 20:23 34.58984 -110.17365 29510 ft 488 kts 248°
2026-05-06 20:24 34.57581 -110.21105 28275 ft 498 kts 248°
2026-05-06 20:24 34.56140 -110.24945 27596 ft 495 kts 248°
2026-05-06 20:24 34.54737 -110.28667 27491 ft 482 kts 248°
2026-05-06 20:24 34.53344 -110.32354 27396 ft 477 kts 248°
2026-05-06 20:25 34.51970 -110.35996 27240 ft 474 kts 248°
2026-05-06 20:25 34.50618 -110.39584 27160 ft 464 kts 248°
2026-05-06 20:25 34.49283 -110.43113 27127 ft 450 kts 248°
2026-05-06 20:25 34.47987 -110.46538 26800 ft 443 kts 248°
2026-05-06 20:26 34.46719 -110.49897 26486 ft 436 kts 248°
2026-05-06 20:26 34.45478 -110.53177 26172 ft 430 kts 248°
2026-05-06 20:26 34.44233 -110.56460 25896 ft 423 kts 248°
2026-05-06 20:26 34.43016 -110.59660 25569 ft 418 kts 248°
2026-05-06 20:27 34.41799 -110.62861 25057 ft 418 kts 248°
2026-05-06 20:27 34.40572 -110.66083 24631 ft 415 kts 248°
2026-05-06 20:27 34.39373 -110.69233 24265 ft 411 kts 247°
2026-05-06 20:27 34.38197 -110.72317 24148 ft 400 kts 247°
2026-05-06 20:28 34.37049 -110.75318 24146 ft 387 kts 248°
2026-05-06 20:28 34.35849 -110.78206 24142 ft 375 kts 242°
2026-05-06 20:28 34.34408 -110.80798 24074 ft 367 kts 233°
2026-05-06 20:28 34.32757 -110.83124 23594 ft 371 kts 229°
2026-05-06 20:29 34.30976 -110.85418 23068 ft 374 kts 228°
2026-05-06 20:29 34.29181 -110.87696 22449 ft 380 kts 227°
2026-05-06 20:29 34.27360 -110.90020 22053 ft 379 kts 227°
2026-05-06 20:29 34.25548 -110.92340 21777 ft 374 kts 228°
2026-05-06 20:30 34.23783 -110.94609 21507 ft 369 kts 228°
2026-05-06 20:30 34.20312 -110.99083 20963 ft 361 kts 228°
2026-05-06 20:30 34.18602 -111.01286 20676 ft 357 kts 228°
2026-05-06 20:31 34.16910 -111.03466 20357 ft 355 kts 228°
2026-05-06 20:31 34.15221 -111.05642 20032 ft 353 kts 229°
2026-05-06 20:31 34.13546 -111.07799 19717 ft 350 kts 228°
2026-05-06 20:31 34.11900 -111.09916 19359 ft 349 kts 228°
2026-05-06 20:32 34.10234 -111.12060 18947 ft 346 kts 228°
2026-05-06 20:32 34.08609 -111.14148 18535 ft 342 kts 229°
2026-05-06 20:32 34.06982 -111.16238 18057 ft 340 kts 228°
2026-05-06 20:32 34.05386 -111.18285 17591 ft 337 kts 228°
2026-05-06 20:33 34.03779 -111.20345 17090 ft 335 kts 229°
2026-05-06 20:33 34.02188 -111.22385 16581 ft 334 kts 228°
2026-05-06 20:33 34.00603 -111.24413 16102 ft 332 kts 228°
2026-05-06 20:33 33.99023 -111.26437 15645 ft 330 kts 229°
2026-05-06 20:34 33.97464 -111.28429 15178 ft 329 kts 229°
2026-05-06 20:34 33.95905 -111.30422 14710 ft 328 kts 229°
2026-05-06 20:34 33.94332 -111.32431 14253 ft 326 kts 229°
2026-05-06 20:34 33.92799 -111.34388 13816 ft 325 kts 229°
2026-05-06 20:35 33.91242 -111.36376 13362 ft 323 kts 229°
2026-05-06 20:35 33.89714 -111.38326 12935 ft 320 kts 229°
2026-05-06 20:35 33.88141 -111.40199 12570 ft 318 kts 223°
2026-05-06 20:35 33.86425 -111.41876 12311 ft 316 kts 218°
2026-05-06 20:36 33.84639 -111.43426 12043 ft 314 kts 217°
2026-05-06 20:36 33.82877 -111.44924 11766 ft 313 kts 216°
2026-05-06 20:36 33.81112 -111.46426 11494 ft 311 kts 217°
2026-05-06 20:36 33.79344 -111.47937 11204 ft 309 kts 217°
2026-05-06 20:37 33.77606 -111.49429 10942 ft 307 kts 217°
2026-05-06 20:37 33.75873 -111.50920 10718 ft 303 kts 217°
2026-05-06 20:37 33.74168 -111.52386 10508 ft 299 kts 217°
2026-05-06 20:37 33.72491 -111.53826 10301 ft 295 kts 217°
2026-05-06 20:38 33.70826 -111.55253 10076 ft 291 kts 217°
2026-05-06 20:38 33.69205 -111.56645 9825 ft 285 kts 217°
2026-05-06 20:38 33.67612 -111.58012 9580 ft 278 kts 217°
2026-05-06 20:38 33.66047 -111.59352 9330 ft 272 kts 217°
2026-05-06 20:39 33.64525 -111.60655 9014 ft 265 kts 217°
2026-05-06 20:39 33.63048 -111.61903 8613 ft 260 kts 216°
2026-05-06 20:39 33.61580 -111.63128 8220 ft 256 kts 216°
2026-05-06 20:39 33.60122 -111.64344 7826 ft 251 kts 216°
2026-05-06 20:40 33.58712 -111.65521 7449 ft 246 kts 216°
2026-05-06 20:40 33.57311 -111.66692 7076 ft 242 kts 216°
2026-05-06 20:40 33.55957 -111.67825 6722 ft 237 kts 216°
2026-05-06 20:40 33.54612 -111.68958 6374 ft 233 kts 216°
2026-05-06 20:41 33.53304 -111.70063 6042 ft 229 kts 216°
2026-05-06 20:41 33.52016 -111.71152 5713 ft 225 kts 216°
2026-05-06 20:41 33.50750 -111.72221 5372 ft 222 kts 216°
2026-05-06 20:41 33.49506 -111.73271 5050 ft 217 kts 216°
2026-05-06 20:42 33.48294 -111.74292 4993 ft 203 kts 216°
2026-05-06 20:42 33.47216 -111.75248 4964 ft 184 kts 224°
2026-05-06 20:42 33.46405 -111.76365 4965 ft 174 kts 239°
2026-05-06 20:42 33.45787 -111.77589 4872 ft 170 kts 242°
2026-05-06 20:43 33.45212 -111.78808 4573 ft 170 kts 242°
2026-05-06 20:43 33.44641 -111.80053 4248 ft 170 kts 248°
2026-05-06 20:43 33.44276 -111.81378 3944 ft 168 kts 260°
2026-05-06 20:43 33.44118 -111.82757 3696 ft 164 kts 267°
2026-05-06 20:44 33.44077 -111.84087 3483 ft 157 kts 270°
2026-05-06 20:44 33.44076 -111.85357 3283 ft 149 kts 271°
2026-05-06 20:44 33.44080 -111.86580 3102 ft 146 kts 271°
2026-05-06 20:44 33.44083 -111.87792 2932 ft 146 kts 271°
2026-05-06 20:45 33.44084 -111.89012 2754 ft 147 kts 271°
2026-05-06 20:45 33.44083 -111.90230 2575 ft 147 kts 271°
2026-05-06 20:45 33.44081 -111.91463 2385 ft 147 kts 270°
2026-05-06 20:45 33.44075 -111.92689 2196 ft 147 kts 270°
2026-05-06 20:46 33.44063 -111.93905 1999 ft 147 kts 269°
2026-05-06 20:46 33.44062 -111.95121 1796 ft 146 kts 271°
2026-05-06 20:46 33.44078 -111.96326 1628 ft 145 kts 270°
2026-05-06 20:46 33.44077 -111.97540 1449 ft 145 kts 270°
2026-05-06 20:47 33.44079 -111.98748 1250 ft 145 kts 270°
2026-05-06 20:47 33.44082 -111.99926 1149 ft 133 kts 270°
2026-05-06 20:47 33.44085 -112.00840 1143 ft 83 kts 269°
2026-05-06 20:47 33.44085 -112.01356 1140 ft 44 kts 270°
2026-05-06 20:48 33.44077 -112.01617 1137 ft 22 kts 253°
2026-05-06 20:48 33.44017 -112.01698 1136 ft 10 kts 176°
2026-05-06 20:48 33.43978 -112.01634 1137 ft 10 kts 94°
2026-05-06 20:48 33.43976 -112.01538 1137 ft 11 kts 91°
2026-05-06 20:49 33.43975 -112.01438 1138 ft 11 kts 90°
2026-05-06 20:49 33.43975 -112.01339 1140 ft 12 kts 90°
2026-05-06 20:49 33.43976 -112.01231 1140 ft 13 kts 90°
2026-05-06 20:49 33.43976 -112.01117 1140 ft 14 kts 90°
2026-05-06 20:50 33.43976 -112.00995 1140 ft 15 kts 90°
2026-05-06 20:50 33.43976 -112.00869 1142 ft 14 kts 90°
2026-05-06 20:50 33.43975 -112.00748 1143 ft 15 kts 90°
2026-05-06 20:50 33.43975 -112.00613 1143 ft 17 kts 90°
2026-05-06 20:51 33.43970 -112.00497 1143 ft 9 kts 113°
2026-05-06 20:51 33.43914 -112.00471 1143 ft 10 kts 175°
2026-05-06 20:51 33.43823 -112.00469 1143 ft 14 kts 180°
2026-05-06 20:51 33.43715 -112.00469 1143 ft 15 kts 180°
2026-05-06 20:52 33.43600 -112.00470 1142 ft 17 kts 180°
2026-05-06 20:52 33.43474 -112.00468 1140 ft 18 kts 180°
2026-05-06 20:52 33.43344 -112.00468 1140 ft 18 kts 180°
2026-05-06 20:52 33.43234 -112.00481 1140 ft 9 kts 216°
2026-05-06 20:53 33.43216 -112.00543 1140 ft 8 kts 269°
2026-05-06 20:53 33.43215 -112.00629 1140 ft 12 kts 269°
2026-05-06 20:53 33.43215 -112.00749 1141 ft 15 kts 270°
2026-05-06 20:53 33.43215 -112.00877 1140 ft 16 kts 270°
2026-05-06 20:54 33.43216 -112.01021 1140 ft 17 kts 270°
2026-05-06 20:54 33.43218 -112.01145 1140 ft 11 kts 280°
2026-05-06 20:54 33.43268 -112.01200 1140 ft 10 kts 340°
2026-05-06 20:54 33.43324 -112.01217 1139 ft 6 kts
2026-05-06 20:55 33.43359 -112.01199 1140 ft 5 kts 27°
2026-05-06 20:55 33.43373 -112.01190 1140 ft 0 kts 27°